Weather History for Fond du Lac, WI

Change the Weather History Date:

Thursday, May 16, 2013

  Actual Average Record
Temperature  
Mean Temperature 62 °F -  
Max Temperature 75 °F 69 °F 89 °F (1977)
Min Temperature 48 °F 47 °F 31 °F (1957)
Degree Days  
Heating Degree Days 4    
Growing Degree Days 12 (Base 50)    
Moisture  
Dew Point 40 °F    
Average Humidity 46    
Maximum Humidity 83    
Minimum Humidity 29    
Precipitation  
Precipitation 0.00 in - - ()
Sea Level Pressure  
Sea Level Pressure 29.93 in    
Wind  
Wind Speed 5 mph (East)    
Max Wind Speed 16 mph    
Max Gust Speed 16 mph    
Visibility 10 miles    
Events      
Averages and records for this station are not official NWS values.
T = Trace of Precipitation, MM = Missing Value Source: NWS Daily Summary

Daily Weather History Graph

Daily Weather History Graph

Search for Another Location

Airport:

Trip Planner

Search our weather history database for the weather conditions in past years. The results will help you decide how hot, cold, wet, or windy it might be!

Date:

Astronomy

May. 16, 2013 Rise Set
Actual Time 5:27 AM CDT 8:14 PM CDT
Civil Twilight 4:53 AM CDT 8:47 PM CDT
Nautical Twilight 4:11 AM CDT 9:29 PM CDT
Astronomical Twilight 3:23 AM CDT 10:19 PM CDT
Moon 11:03 AM CDT (5/16) 12:31 AM CDT (5/16)
Length of Visible Light 15h 53m
Length of Day
14h 46m
Waxing Crescent, 36% of the Moon is Illuminated
May 16
Waxing Crescent
May 17
First Quarter
May 24
Full
May 31
Last Quarter
Jun 8
New

Hourly Weather History & Observations

Time (CDT) Temp. Dew Point Humidity Pressure Visibility Wind Dir Wind Speed Gust Speed Precip Events Conditions
12:53 AM 57.9 °F 39.9 °F 51% 29.84 in 10.0 mi SW 4.6 mph - N/A   Clear
1:53 AM 57.0 °F 41.0 °F 55% 29.84 in 10.0 mi WSW 3.5 mph - N/A   Clear
2:53 AM 52.0 °F 42.1 °F 69% 29.86 in 10.0 mi Calm Calm - N/A   Clear
3:53 AM 50.0 °F 43.0 °F 77% 29.87 in 10.0 mi Calm Calm - N/A   Clear
4:53 AM 48.0 °F 43.0 °F 83% 29.88 in 10.0 mi South 4.6 mph - N/A   Clear
5:53 AM 48.9 °F 43.0 °F 80% 29.89 in 10.0 mi Calm Calm - N/A   Clear
6:53 AM 57.0 °F 48.0 °F 72% 29.91 in 10.0 mi Calm Calm - N/A   Clear
7:53 AM 62.1 °F 46.0 °F 56% 29.92 in 10.0 mi Calm Calm - N/A   Clear
8:53 AM 66.9 °F 46.9 °F 49% 29.93 in 10.0 mi Calm Calm - N/A   Clear
9:53 AM 71.1 °F 42.1 °F 35% 29.93 in 10.0 mi Calm Calm - N/A   Clear
10:53 AM 73.9 °F 41.0 °F 30% 29.93 in 10.0 mi Calm Calm - N/A   Clear
11:53 AM 73.0 °F 46.0 °F 38% 29.93 in 10.0 mi NE 10.4 mph - N/A   Clear
12:53 PM 75.0 °F 46.9 °F 37% 29.92 in 10.0 mi NE 9.2 mph - N/A   Clear
1:53 PM 75.0 °F 48.9 °F 40% 29.92 in 10.0 mi East 6.9 mph - N/A   Clear
2:53 PM 73.0 °F 46.0 °F 38% 29.94 in 10.0 mi East 13.8 mph - N/A   Clear
3:53 PM 70.0 °F 44.1 °F 39% 29.94 in 10.0 mi ENE 16.1 mph - N/A   Clear
4:53 PM 69.1 °F 39.9 °F 35% 29.94 in 10.0 mi ESE 15.0 mph - N/A   Clear
5:53 PM 66.0 °F 37.0 °F 34% 29.95 in 10.0 mi East 12.7 mph - N/A   Clear
6:53 PM 63.0 °F 35.1 °F 35% 29.96 in 10.0 mi ESE 11.5 mph - N/A   Clear
7:53 PM 62.1 °F 33.1 °F 34% 29.97 in 10.0 mi ESE 10.4 mph 16.1 mph N/A   Overcast
8:53 PM 60.1 °F 28.9 °F 31% 30.00 in 10.0 mi East 10.4 mph - N/A   Overcast
9:53 PM 59.0 °F 28.0 °F 31% 30.02 in 10.0 mi ENE 6.9 mph - N/A   Overcast
10:53 PM 59.0 °F 27.0 °F 29% 30.01 in 10.0 mi ENE 6.9 mph - N/A   Overcast
11:53 PM 59.0 °F 28.0 °F 31% 30.02 in 10.0 mi NE 8.1 mph - N/A   Overcast